Date String (YYYY-MM-DD hh:mm:ss) UTC,Instrument flags,absolute air pressure of the measurement (hPa),sample flow rate (lpm),inlet stack bypass flow (lpm),air temperature of the measurement (°C),ambient temperature measured by the external sensor (°C),aerosol sample conditioner tube jacket temperature (°C),OPC LED temperature (°C),internal box temperature (°C),relative humidity of the measurement (%),span deviation,mass concentration of particles derived from Lorenz-Mie calculation of OPC scattering (μg/m³),mass concentration of particles derived from Lorenz-Mie calculation of OPC scattering (μg/m³),mass concentration of particles derived from Lorenz-Mie calculation of OPC scattering (μg/m³)
DateTimeUTC,F1_M11,P_M11,Q1_M11,Q2_M11,T1_M11,T2_M11,T3_M11,T4_M11,T5_M11,U1_M11,ZSPAN_M11,X2_M11,X0_M11,X1_M11
2024-06-07 01:00:00,SystemResetWarning,0829.7,5.00,000.00,029.0,028.1,000.0,037.2,030.8,021.8,0000.0,0004.06,0023.38,0001.92
2024-06-07 01:01:00,SystemResetWarning,0829.7,5.00,000.00,029.1,028.4,000.0,037.2,030.9,021.8,0000.0,0004.06,0023.60,0001.92
2024-06-07 01:02:00,SystemResetWarning,0829.7,5.01,000.00,029.1,028.6,000.0,037.2,031.0,022.5,0000.0,0004.00,0023.53,0001.91
2024-06-07 01:03:00,SystemResetWarning,0829.7,5.00,000.00,029.3,028.8,000.0,037.3,031.2,022.4,0000.0,0003.89,0021.69,0001.91
2024-06-07 01:04:00,SystemResetWarning,0829.7,4.99,000.00,029.3,028.9,000.0,037.3,031.2,022.5,0000.0,0003.83,0021.17,0001.91
2024-06-07 01:05:00,SystemResetWarning,0829.6,4.99,000.00,029.2,027.4,000.0,037.4,030.4,022.2,0000.0,0003.88,0022.08,0001.91
2024-06-07 01:06:00,SystemResetWarning,0829.6,5.01,000.00,028.8,025.5,000.0,037.4,029.5,021.0,0000.0,0003.93,0021.23,0001.92
2024-06-07 01:07:00,SystemResetWarning,0829.5,5.01,000.00,028.6,025.7,000.0,037.4,029.5,022.4,0000.0,0003.97,0021.86,0001.91
2024-06-07 01:08:00,SystemResetWarning,0829.6,4.99,000.00,028.6,026.3,000.0,037.3,029.8,023.4,0000.0,0004.03,0022.48,0001.90
2024-06-07 01:09:00,SystemResetWarning,0829.7,4.98,000.00,028.6,026.7,000.0,037.2,030.1,023.1,0000.0,0004.09,0022.65,0001.91
2024-06-07 01:10:00,SystemResetWarning,0829.7,5.00,000.00,028.7,027.2,000.0,037.2,030.3,022.8,0000.0,0004.11,0024.02,0001.89
2024-06-07 01:11:00,SystemResetWarning,0829.6,5.00,000.00,028.8,027.6,000.0,037.2,030.5,022.7,0000.0,0004.13,0024.69,0001.89
2024-06-07 01:12:00,SystemResetWarning,0829.7,5.00,000.00,028.9,028.0,000.0,037.1,030.7,022.7,0000.0,0004.15,0024.11,0001.89
2024-06-07 01:13:00,SystemResetWarning,0829.6,5.01,000.00,029.0,028.3,000.0,037.2,030.8,023.0,0000.0,0004.15,0023.46,0001.89
2024-06-07 01:14:00,SystemResetWarning,0829.6,5.00,000.00,029.1,028.5,000.0,037.2,031.0,022.8,0000.0,0004.12,0023.74,0001.89
2024-06-07 01:15:00,SystemResetWarning,0829.7,5.00,000.00,029.2,028.7,000.0,037.2,031.1,022.8,0000.0,0004.14,0024.92,0001.88
2024-06-07 01:16:00,SystemResetWarning,0829.6,4.99,000.00,029.3,028.9,000.0,037.3,031.2,022.1,0000.0,0004.14,0025.87,0001.88
2024-06-07 01:17:00,SystemResetWarning,0829.7,5.00,000.00,029.4,028.9,000.0,037.4,031.2,022.3,0000.0,0004.10,0026.35,0001.87
2024-06-07 01:18:00,SystemResetWarning,0829.5,4.98,000.00,029.1,026.8,000.0,037.4,030.1,022.4,0000.0,0004.18,0029.26,0001.88
2024-06-07 01:19:00,SystemResetWarning,0829.4,5.03,000.00,028.7,025.3,000.0,037.4,029.4,023.0,0000.0,0004.22,0030.20,0001.88
2024-06-07 01:20:00,SystemResetWarning,0829.4,5.00,000.00,028.6,025.8,000.0,037.4,029.5,022.4,0000.0,0004.20,0031.61,0001.88
2024-06-07 01:21:00,SystemResetWarning,0829.4,4.99,000.00,028.6,026.3,000.0,037.3,029.8,022.0,0000.0,0004.18,0031.07,0001.87
2024-06-07 01:22:00,SystemResetWarning,0829.4,5.00,000.00,028.6,026.7,000.0,037.2,030.1,022.6,0000.0,0004.20,0031.15,0001.87
2024-06-07 01:23:00,SystemResetWarning,0829.4,5.00,000.00,028.7,027.2,000.0,037.1,030.3,022.2,0000.0,0004.24,0033.11,0001.85
2024-06-07 01:24:00,SystemResetWarning,0829.5,4.99,000.00,028.8,027.6,000.0,037.1,030.5,021.9,0000.0,0004.26,0033.85,0001.84
2024-06-07 01:25:00,SystemResetWarning,0829.4,5.01,000.00,028.9,028.0,000.0,037.1,030.7,021.8,0000.0,0004.29,0034.75,0001.83
2024-06-07 01:26:00,SystemResetWarning,0829.5,5.00,000.00,029.0,028.3,000.0,037.2,030.8,021.7,0000.0,0004.29,0033.23,0001.83
2024-06-07 01:27:00,SystemResetWarning,0829.4,4.99,000.00,029.1,028.6,000.0,037.2,031.0,021.7,0000.0,0004.29,0031.46,0001.81
2024-06-07 01:28:00,SystemResetWarning,0829.4,5.00,000.00,029.2,028.8,000.0,037.2,031.1,021.6,0000.0,0004.27,0031.14,0001.78
2024-06-07 01:29:00,SystemResetWarning,0829.5,5.00,000.00,029.3,029.0,000.0,037.3,031.2,021.3,0000.0,0004.19,0029.27,0001.76
2024-06-07 01:30:00,SystemResetWarning,0829.5,4.99,000.00,029.3,028.6,000.0,037.4,031.0,021.2,0000.0,0004.11,0026.28,0001.73
2024-06-07 01:31:00,SystemResetWarning,0829.4,5.00,000.00,029.0,026.3,000.0,037.4,029.9,021.6,0000.0,0004.06,0024.82,0001.71
2024-06-07 01:32:00,SystemResetWarning,0829.3,5.02,000.00,028.7,025.3,000.0,037.4,029.3,022.4,0000.0,0004.04,0026.13,0001.70
2024-06-07 01:33:00,SystemResetWarning,0829.3,4.99,000.00,028.6,025.8,000.0,037.3,029.5,022.6,0000.0,0003.98,0027.87,0001.69
2024-06-07 01:34:00,SystemResetWarning,0829.4,5.00,000.00,028.6,026.3,000.0,037.2,029.8,022.4,0000.0,0003.96,0026.84,0001.68
2024-06-07 01:35:00,SystemResetWarning,0829.5,5.01,000.00,028.6,026.8,000.0,037.1,030.1,022.2,0000.0,0003.91,0026.32,0001.68
2024-06-07 01:36:00,SystemResetWarning,0829.5,5.00,000.00,028.7,027.3,000.0,037.1,030.3,022.0,0000.0,0003.96,0025.18,0001.68
2024-06-07 01:37:00,SystemResetWarning,0829.5,5.00,000.00,028.8,027.7,000.0,037.1,030.5,021.8,0000.0,0003.98,0024.41,0001.67
2024-06-07 01:38:00,SystemResetWarning,0829.5,5.00,000.00,028.9,028.0,000.0,037.1,030.7,021.6,0000.0,0003.96,0025.36,0001.65
2024-06-07 01:39:00,SystemResetWarning,0829.5,5.01,000.00,029.0,028.3,000.0,037.1,030.8,021.4,0000.0,0003.96,0025.19,0001.64
2024-06-07 01:40:00,SystemResetWarning,0829.5,5.00,000.00,029.1,028.5,000.0,037.2,031.0,021.1,0000.0,0003.93,0023.22,0001.62
2024-06-07 01:41:00,SystemResetWarning,0829.6,5.00,000.00,029.2,028.8,000.0,037.2,031.1,021.1,0000.0,0003.88,0023.50,0001.60
2024-06-07 01:42:00,SystemResetWarning,0829.5,5.01,000.00,029.3,028.9,000.0,037.3,031.2,021.1,0000.0,0003.84,0023.76,0001.60
2024-06-07 01:43:00,SystemResetWarning,0829.5,4.99,000.00,029.4,029.0,000.0,037.3,031.2,021.1,0000.0,0003.82,0021.93,0001.58
2024-06-07 01:44:00,SystemResetWarning,0829.4,4.98,000.00,029.2,027.2,000.0,037.4,030.2,021.2,0000.0,0003.84,0020.66,0001.57
2024-06-07 01:45:00,SystemResetWarning,0829.4,5.01,000.00,028.8,025.4,000.0,037.4,029.4,021.9,0000.0,0003.85,0019.75,0001.56
2024-06-07 01:46:00,SystemResetWarning,0829.4,5.01,000.00,028.6,025.6,000.0,037.3,029.5,022.2,0000.0,0003.84,0019.84,0001.56
2024-06-07 01:47:00,SystemResetWarning,0829.3,5.00,000.00,028.6,026.2,000.0,037.2,029.7,022.2,0000.0,0003.83,0020.41,0001.55
2024-06-07 01:48:00,SystemResetWarning,0829.4,5.00,000.00,028.6,026.6,000.0,037.2,030.0,021.6,0000.0,0003.78,0021.70,0001.55
2024-06-07 01:49:00,SystemResetWarning,0829.4,5.00,000.00,028.7,027.1,000.0,037.1,030.3,021.8,0000.0,0003.71,0023.06,0001.54
2024-06-07 01:50:00,SystemResetWarning,0829.4,5.00,000.00,028.8,027.6,000.0,037.1,030.5,021.4,0000.0,0003.67,0022.85,0001.55
2024-06-07 01:51:00,SystemResetWarning,0829.4,5.00,000.00,028.8,027.9,000.0,037.1,030.6,021.4,0000.0,0003.69,0021.79,0001.57
2024-06-07 01:52:00,SystemResetWarning,0829.4,5.00,000.00,028.9,028.2,000.0,037.1,030.8,021.5,0000.0,0003.70,0021.57,0001.58
2024-06-07 01:53:00,SystemResetWarning,0829.4,4.99,000.00,029.0,028.5,000.0,037.2,030.9,021.1,0000.0,0003.68,0020.72,0001.59
2024-06-07 01:54:00,SystemResetWarning,0829.5,5.00,000.00,029.1,028.7,000.0,037.2,031.0,021.0,0000.0,0003.63,0019.94,0001.57
2024-06-07 01:55:00,SystemResetWarning,0829.4,5.00,000.00,029.2,028.9,000.0,037.2,031.2,021.1,0000.0,0003.64,0019.00,0001.56
2024-06-07 01:56:00,SystemResetWarning,0829.5,5.00,000.00,029.3,029.0,000.0,037.3,031.3,020.7,0000.0,0003.63,0018.36,0001.57
2024-06-07 01:57:00,SystemResetWarning,0829.4,4.99,000.00,029.3,028.0,000.0,037.4,030.7,020.7,0000.0,0003.59,0017.36,0001.56
2024-06-07 01:58:00,SystemResetWarning,0829.3,5.01,000.00,029.0,026.5,000.0,037.4,030.0,021.2,0000.0,0003.48,0017.24,0001.54
2024-06-07 01:59:00,SystemResetWarning,0829.3,5.02,000.00,028.9,026.7,000.0,037.4,030.0,021.3,0000.0,0003.44,0018.74,0001.54
